Location: Wells
(51.2093°N, 2.6446°W)
Time: 07:39:50
(UTC+00:00)

MOZHAYETS 4 - Visible Passes

Search period start: 11 March 2026 00:00
Search period end: 21 March 2026 00:00
Orbit: 643 x 658 km, 98.3° (Epoch: 10 March)

Date Brightness Start Highest point End Pass type
(mag) Time Alt. Az. Time Alt. Az. Time Alt. Az.
11 Mar 10.5 03:27:56 10° E 03:30:51 17° NE 03:33:46 10° NNE visible
11 Mar 7.6 05:02:26 10° SSE 05:06:59 80° WSW 05:11:33 10° NNW visible
11 Mar 10.8 20:03:50 10° NNW 20:06:05 14° NW 20:08:20 10° W visible
12 Mar 9.9 03:53:30 10° ESE 03:57:16 27° ENE 04:01:03 10° N visible
12 Mar 7.9 05:29:25 10° S 05:33:45 45° W 05:38:08 10° NNW visible
12 Mar 8.9 18:52:25 10° N 18:56:45 47° WNW 19:01:02 10° SW visible
13 Mar 8.9 04:19:31 10° SE 04:23:47 43° ENE 04:28:05 10° N visible
13 Mar 8.6 05:56:48 10° SSW 06:00:38 27° W 06:04:29 10° NW visible
13 Mar 9.9 19:19:25 10° N 19:23:17 29° WNW 19:27:07 10° WSW visible
14 Mar 10.9 03:12:28 10° E 03:14:29 13° NE 03:16:30 10° NNE visible
14 Mar 7.9 04:45:53 10° SSE 04:50:24 73° ENE 04:54:57 10° NNW visible
14 Mar 10.6 19:46:39 10° NNW 19:49:42 18° WNW 19:52:46 10° W visible
15 Mar 10.4 03:37:35 10° ESE 03:40:51 20° ENE 03:44:07 10° NNE visible
15 Mar 7.6 05:12:36 10° S 05:17:06 65° WSW 05:21:38 10° NNW visible
15 Mar 11.0 20:14:29 10° NNW 20:16:02 12° NW 20:17:36 10° WNW visible
16 Mar 9.6 04:03:19 10° SE 04:07:17 31° ENE 04:11:17 10° N visible
16 Mar 8.2 05:39:41 10° SSW 05:43:54 37° W 05:48:08 10° NNW visible
16 Mar 9.3 19:02:36 10° N 19:06:47 39° WNW 19:10:56 10° SW visible
17 Mar 8.6 04:29:26 10° SE 04:33:50 52° ENE 04:38:14 10° N visible
17 Mar 10.2 19:29:39 10° N 19:33:15 24° WNW 19:36:51 10° WSW visible
18 Mar 10.8 03:21:53 10° E 03:24:26 15° NE 03:26:59 10° NNE visible
18 Mar 7.7 04:55:55 10° SSE 05:00:27 88° ENE 05:05:01 10° NNW visible
18 Mar 10.8 19:57:00 10° NNW 19:59:38 16° NW 20:02:17 10° W visible
19 Mar 10.1 03:47:14 10° ESE 03:50:48 23° ENE 03:54:22 10° N visible
19 Mar 7.8 05:22:45 10° S 05:27:11 53° W 05:31:38 10° NNW visible
20 Mar 9.3 04:13:06 10° SE 04:17:16 37° ENE 04:21:26 10° N visible
20 Mar 9.7 19:12:43 10° N 19:16:44 33° WNW 19:20:43 10° SW visible
